• Em Portugal
  • Lista de países
  • Para 7 dias
  • Temperatura da água
  • Mapas de satélite
  • Mapa do tempo
  • Widgets de tempo
  • user-avatar
    Iniciar Sessão

    Previsão horária em Suszki

    Hoje, 24 Setembro, Segunda-feira

    Tempo Temperatura Precipitação Vento Pressão Humidade
    00:00 +8°C° 0.8 mm 7 m/s 737 mmHg 90%
    01:00 +7°C° 0 mm 6 m/s 739 mmHg 87%
    02:00 +6°C° 0.1 mm 7 m/s 740 mmHg 86%
    03:00 +6°C° 0.1 mm 7 m/s 741 mmHg 86%
    04:00 +6°C° 0.1 mm 7 m/s 742 mmHg 86%
    05:00 +6°C° 0 mm 7 m/s 743 mmHg 85%
    06:00 +6°C° 0 mm 8 m/s 744 mmHg 85%
    07:00 +5°C° 0 mm 8 m/s 744 mmHg 84%
    08:00 +6°C° 0.1 mm 8 m/s 745 mmHg 80%
    09:00 +7°C° 0.1 mm 8 m/s 746 mmHg 77%
    10:00 +7°C° 0.1 mm 8 m/s 746 mmHg 74%
    11:00 +9°C° 0.3 mm 8 m/s 747 mmHg 69%
    12:00 +10°C° 0.3 mm 8 m/s 747 mmHg 64%
    13:00 +10°C° 0.3 mm 9 m/s 747 mmHg 59%
    14:00 +10°C° 0.2 mm 8 m/s 747 mmHg 58%
    15:00 +10°C° 0.2 mm 8 m/s 748 mmHg 57%
    16:00 +10°C° 0.2 mm 7 m/s 748 mmHg 56%
    17:00 +9°C° 0.1 mm 7 m/s 748 mmHg 61%
    18:00 +8°C° 0.1 mm 6 m/s 749 mmHg 66%
    19:00 +7°C° 0.1 mm 5 m/s 750 mmHg 71%
    20:00 +6°C° 0.1 mm 4 m/s 750 mmHg 73%
    21:00 +6°C° 0.1 mm 4 m/s 751 mmHg 75%
    22:00 +6°C° 0.1 mm 4 m/s 751 mmHg 77%
    23:00 +5°C° 0 mm 4 m/s 751 mmHg 79%

    Amanhã, 25 Setembro, Terça-feira

    Tempo Temperatura Precipitação Vento Pressão Humidade
    00:00 +5°C° 0 mm 4 m/s 752 mmHg 80%
    01:00 +4°C° 0 mm 4 m/s 752 mmHg 81%
    02:00 +4°C° 0 mm 4 m/s 753 mmHg 82%
    03:00 +4°C° 0 mm 4 m/s 753 mmHg 83%
    04:00 +3°C° 0 mm 4 m/s 753 mmHg 84%
    05:00 +3°C° 0 mm 4 m/s 754 mmHg 84%
    06:00 +4°C° 0 mm 4 m/s 755 mmHg 83%
    07:00 +4°C° 0 mm 4 m/s 755 mmHg 83%
    08:00 +5°C° 0 mm 4 m/s 756 mmHg 76%
    09:00 +7°C° 0 mm 4 m/s 756 mmHg 70%
    10:00 +10°C° 0 mm 4 m/s 757 mmHg 64%
    11:00 +11°C° 0.1 mm 4 m/s 757 mmHg 59%
    12:00 +11°C° 0.1 mm 4 m/s 757 mmHg 54%
    13:00 +12°C° 0.1 mm 3 m/s 757 mmHg 49%
    14:00 +12°C° 0 mm 3 m/s 757 mmHg 49%
    15:00 +12°C° 0 mm 3 m/s 757 mmHg 49%
    16:00 +12°C° 0 mm 3 m/s 757 mmHg 50%
    17:00 +12°C° 0 mm 2 m/s 757 mmHg 55%
    18:00 +9°C° 0 mm 2 m/s 757 mmHg 61%
    19:00 +8°C° 0 mm 1 m/s 757 mmHg 67%
    20:00 +8°C° 0 mm 1 m/s 758 mmHg 68%
    21:00 +8°C° 0 mm 1 m/s 758 mmHg 69%
    22:00 +6°C° 0 mm 2 m/s 758 mmHg 70%
    23:00 +6°C° 0 mm 2 m/s 758 mmHg 71%

    Depois de amanhã, 26 Setembro, Quarta-feira

    Tempo Temperatura Precipitação Vento Pressão Humidade
    00:00 +5°C° 0 mm 2 m/s 758 mmHg 71%
    01:00 +5°C° 0 mm 2 m/s 758 mmHg 72%
    02:00 +5°C° 0 mm 2 m/s 758 mmHg 72%
    03:00 +5°C° 0 mm 2 m/s 758 mmHg 73%
    04:00 +5°C° 0 mm 2 m/s 758 mmHg 73%
    05:00 +5°C° 0 mm 2 m/s 757 mmHg 72%
    06:00 +5°C° 0 mm 2 m/s 757 mmHg 72%
    07:00 +6°C° 0 mm 2 m/s 757 mmHg 71%
    08:00 +8°C° 0 mm 3 m/s 757 mmHg 63%
    09:00 +10°C° 0 mm 3 m/s 757 mmHg 55%
    10:00 +12°C° 0 mm 4 m/s 757 mmHg 47%
    11:00 +13°C° 0 mm 4 m/s 756 mmHg 44%
    12:00 +14°C° 0 mm 4 m/s 756 mmHg 42%
    13:00 +15°C° 0 mm 4 m/s 755 mmHg 39%
    14:00 +15°C° 0 mm 4 m/s 755 mmHg 41%
    15:00 +15°C° 0 mm 4 m/s 754 mmHg 42%
    16:00 +16°C° 0 mm 3 m/s 754 mmHg 43%
    17:00 +13°C° 0 mm 3 m/s 754 mmHg 47%
    18:00 +12°C° 0 mm 3 m/s 753 mmHg 51%
    19:00 +10°C° 0 mm 3 m/s 753 mmHg 55%
    20:00 +10°C° 0 mm 3 m/s 753 mmHg 54%
    21:00 +10°C° 0 mm 3 m/s 753 mmHg 54%
    22:00 +10°C° 0 mm 3 m/s 753 mmHg 53%
    23:00 +10°C° 0 mm 3 m/s 753 mmHg 53%

    27 Setembro, Quinta-feira

    Tempo Temperatura Precipitação Vento Pressão Humidade
    00:00 +10°C° 0 mm 4 m/s 753 mmHg 54%
    01:00 +10°C° 0 mm 4 m/s 753 mmHg 55%
    02:00 +10°C° 0 mm 4 m/s 753 mmHg 55%
    03:00 +10°C° 0 mm 4 m/s 753 mmHg 55%
    04:00 +10°C° 0 mm 4 m/s 752 mmHg 55%
    05:00 +11°C° 0 mm 4 m/s 752 mmHg 56%
    06:00 +11°C° 0 mm 4 m/s 752 mmHg 56%
    07:00 +11°C° 0 mm 4 m/s 752 mmHg 57%
    08:00 +13°C° 0 mm 4 m/s 752 mmHg 56%
    09:00 +15°C° 0 mm 4 m/s 753 mmHg 54%
    10:00 +16°C° 0 mm 5 m/s 753 mmHg 53%
    11:00 +19°C° 0 mm 5 m/s 752 mmHg 53%
    12:00 +20°C° 0 mm 5 m/s 752 mmHg 54%
    13:00 +21°C° 0 mm 5 m/s 752 mmHg 54%
    14:00 +21°C° 0 mm 4 m/s 751 mmHg 56%
    15:00 +21°C° 0 mm 4 m/s 751 mmHg 57%
    16:00 +21°C° 0 mm 4 m/s 751 mmHg 59%
    17:00 +19°C° 0 mm 3 m/s 750 mmHg 66%
    18:00 +18°C° 0 mm 3 m/s 750 mmHg 73%
    19:00 +16°C° 0 mm 2 m/s 750 mmHg 80%
    20:00 +16°C° 0 mm 2 m/s 750 mmHg 80%
    21:00 +15°C° 0 mm 2 m/s 749 mmHg 81%
    22:00 +15°C° 0 mm 2 m/s 749 mmHg 82%
    23:00 +15°C° 0 mm 2 m/s 749 mmHg 81%

    28 Setembro, Sexta-feira

    Tempo Temperatura Precipitação Vento Pressão Humidade
    00:00 +15°C° 0 mm 2 m/s 748 mmHg 79%
    01:00 +14°C° 0 mm 2 m/s 748 mmHg 78%
    02:00 +14°C° 0 mm 2 m/s 747 mmHg 77%
    03:00 +14°C° 0 mm 2 m/s 747 mmHg 76%
    04:00 +13°C° 0 mm 3 m/s 746 mmHg 76%
    05:00 +13°C° 0 mm 3 m/s 746 mmHg 74%
    06:00 +13°C° 0 mm 3 m/s 745 mmHg 72%
    07:00 +13°C° 0 mm 3 m/s 745 mmHg 71%
    08:00 +16°C° 0 mm 3 m/s 745 mmHg 63%
    09:00 +17°C° 0 mm 4 m/s 745 mmHg 55%
    10:00 +19°C° 0 mm 4 m/s 745 mmHg 47%
    11:00 +20°C° 0 mm 4 m/s 745 mmHg 45%
    12:00 +20°C° 0 mm 4 m/s 744 mmHg 43%
    13:00 +21°C° 0 mm 4 m/s 744 mmHg 41%
    14:00 +20°C° 0 mm 4 m/s 744 mmHg 44%
    15:00 +20°C° 0 mm 4 m/s 744 mmHg 47%
    16:00 +19°C° 0 mm 4 m/s 744 mmHg 49%
    17:00 +18°C° 0 mm 4 m/s 744 mmHg 58%
    18:00 +15°C° 0 mm 4 m/s 745 mmHg 66%
    19:00 +13°C° 0 mm 4 m/s 745 mmHg 75%
    20:00 +13°C° 0 mm 4 m/s 745 mmHg 72%
    21:00 +12°C° 0 mm 4 m/s 746 mmHg 69%
    22:00 +12°C° 0 mm 4 m/s 746 mmHg 67%
    23:00 +11°C° 0 mm 3 m/s 747 mmHg 68%

    29 Setembro, Sábado

    Tempo Temperatura Precipitação Vento Pressão Humidade
    00:00 +9°C° 0 mm 3 m/s 747 mmHg 70%
    01:00 +8°C° 0 mm 3 m/s 747 mmHg 72%
    02:00 +8°C° 0 mm 3 m/s 747 mmHg 75%
    03:00 +7°C° 0 mm 3 m/s 748 mmHg 78%
    04:00 +7°C° 0 mm 3 m/s 748 mmHg 81%
    05:00 +7°C° 0 mm 3 m/s 749 mmHg 82%
    06:00 +7°C° 0 mm 3 m/s 749 mmHg 82%
    07:00 +7°C° 0 mm 3 m/s 749 mmHg 82%
    08:00 +9°C° 0 mm 3 m/s 750 mmHg 75%
    09:00 +10°C° 0 mm 3 m/s 750 mmHg 69%
    10:00 +12°C° 0 mm 3 m/s 751 mmHg 62%
    11:00 +13°C° 0 mm 3 m/s 751 mmHg 58%
    12:00 +13°C° 0 mm 3 m/s 751 mmHg 53%
    13:00 +14°C° 0 mm 3 m/s 751 mmHg 49%
    14:00 +14°C° 0 mm 3 m/s 751 mmHg 49%
    15:00 +14°C° 0 mm 3 m/s 751 mmHg 49%
    16:00 +14°C° 0 mm 3 m/s 751 mmHg 49%
    17:00 +12°C° 0 mm 3 m/s 751 mmHg 55%
    18:00 +10°C° 0 mm 2 m/s 751 mmHg 61%
    19:00 +9°C° 0 mm 2 m/s 752 mmHg 67%
    20:00 +8°C° 0 mm 2 m/s 752 mmHg 68%
    21:00 +8°C° 0 mm 2 m/s 752 mmHg 70%
    22:00 +7°C° 0 mm 2 m/s 752 mmHg 71%
    23:00 +7°C° 0 mm 2 m/s 752 mmHg 72%
    Mostrar mais